Carnival Pride — H3VU — position and weather

sailwx.info

Track history (hours):
 
Tides and Currents Weather Stations Pressure Air Temp Water Temp Dewpoint Dewpoint Depression Visibility Wind Speed Wind Dir Waves Ship Positions

Carnival Pride

Operator: Carnival Cruise Lines

Last reported at 2014-Nov-18 22:33 UTC. Time now 2014-Nov-22 08:26 UTC.
Position N 20°26' W 087°03'.

Type: Ship. MMSI: 354215000.

Date/timePositionNaut miles runAvg speedWind from/ knotsBaromVisibWave heightAir tempDewpointWater temp
2014-Nov-18 22:33N 20°26' W 087°03'5 4.9
2014-Nov-18 21:31N 20°29' W 086°59'0 0.0
2014-Nov-18 20:31N 20°29' W 086°59'0 0.0
2014-Nov-18 19:31N 20°29' W 086°59'0 0.0
2014-Nov-18 18:31N 20°29' W 086°59'0 0.0
2014-Nov-18 17:31N 20°29' W 086°59'0 0.0
2014-Nov-18 16:31N 20°29' W 086°59'0 0.0
2014-Nov-18 15:31N 20°29' W 086°59'0 0.0
2014-Nov-18 14:31N 20°29' W 086°59'0 0.0
2014-Nov-18 13:33N 20°29' W 086°59'4 4.4
2014-Nov-18 12:33N 20°33' W 086°58'10 7.3
2014-Nov-18 11:14N 20°41' W 086°52'42515.9
2014-Nov-17 08:33N 26°60' W 083°21'1917.9
2014-Nov-17 07:31N 27°16' W 083°12'1717.8
2014-Nov-17 06:33N 27°32' W 083°03'1515.4
2014-Nov-17 05:34N 27°37' W 082°46'1515.0
2014-Nov-17 04:33N 27°44' W 082°32'8 8.3
2014-Nov-17 03:33N 27°51' W 082°27'5 5.2
2014-Nov-17 02:32N 27°57' W 082°27'0 0.0
2014-Nov-17 01:29N 27°57' W 082°27'0 0.0
2014-Nov-17 00:32N 27°57' W 082°27'0 0.0
2014-Nov-16 23:32N 27°57' W 082°27'0 0.0
2014-Nov-16 22:32N 27°57' W 082°27'0 0.0
2014-Nov-16 21:29N 27°57' W 082°27'0 0.0
2014-Nov-16 20:32N 27°57' W 082°27'0 0.0
2014-Nov-16 19:29N 27°57' W 082°27'0 0.0
2014-Nov-16 18:32N 27°57' W 082°27'0 0.0
2014-Nov-16 17:32N 27°57' W 082°27'0 0.0
2014-Nov-16 16:33N 27°57' W 082°27'0 0.0
2014-Nov-16 15:33N 27°57' W 082°27'0 0.0
2014-Nov-16 14:33N 27°57' W 082°27'0 0.0
2014-Nov-16 13:33N 27°57' W 082°27'0 0.0
2014-Nov-16 12:33N 27°57' W 082°27'3 3.2
2014-Nov-16 11:33N 27°53' W 082°26'1313.2
2014-Nov-16 10:34N 27°42' W 082°33'1515.1
2014-Nov-16 09:33N 27°36' W 082°49'1312.5
2014-Nov-16 08:33N 27°33' W 083°03'1715.6
2014-Nov-16 07:28N 27°16' W 083°09'  
2014-Nov-11 23:09N 20°24' W 087°04'711.2
2014-Nov-11 22:33N 20°29' W 086°59'0 0.4
2014-Nov-11 21:28N 20°29' W 086°59'0 0.0
2014-Nov-11 20:28N 20°29' W 086°59'0 0.0
2014-Nov-11 19:28N 20°29' W 086°59'0 0.0
2014-Nov-11 18:28N 20°29' W 086°59'0 0.0
2014-Nov-11 17:28N 20°29' W 086°59'0 0.0
2014-Nov-11 16:28N 20°29' W 086°59'0 0.0
2014-Nov-11 15:28N 20°29' W 086°59'0 0.0
2014-Nov-11 14:28N 20°29' W 086°59'0 0.0
2014-Nov-11 13:33N 20°29' W 086°59'5 5.3
2014-Nov-11 12:33N 20°34' W 086°57'44314.6
2014-Nov-10 06:17N 27°08' W 083°16'1818.7
2014-Nov-10 05:20N 27°24' W 083°07'1417.8
2014-Nov-10 04:33N 27°36' W 082°59'1615.7
2014-Nov-10 03:32N 27°37' W 082°41'1414.0
2014-Nov-10 02:33N 27°47' W 082°31'9 9.2
2014-Nov-10 01:33N 27°56' W 082°27'1 0.7
2014-Nov-10 00:33N 27°57' W 082°27'0 0.0
2014-Nov-09 23:33N 27°57' W 082°27'0 0.0
2014-Nov-09 22:33N 27°57' W 082°27'0 0.0
2014-Nov-09 21:33N 27°57' W 082°27'0 0.0
2014-Nov-09 20:33N 27°57' W 082°27'0 0.0
2014-Nov-09 19:33N 27°57' W 082°27'0 0.0
2014-Nov-09 18:33N 27°57' W 082°27'0 0.0
2014-Nov-09 17:33N 27°57' W 082°27'0 0.0
2014-Nov-09 16:33N 27°57' W 082°27'0 0.0
2014-Nov-09 15:33N 27°57' W 082°27'0 0.0
2014-Nov-09 14:20N 27°57' W 082°27'0 0.0
2014-Nov-09 13:31N 27°57' W 082°27'0 0.0
2014-Nov-09 12:31N 27°57' W 082°27'0 0.0
2014-Nov-09 11:31N 27°57' W 082°27'0 0.0
2014-Nov-09 10:33N 27°57' W 082°27'0 0.0
2014-Nov-09 09:33N 27°57' W 082°27'0 0.0
2014-Nov-09 08:32N 27°57' W 082°27'0 0.0
2014-Nov-09 07:33N 27°57' W 082°27'0 0.0
2014-Nov-09 06:31N 27°57' W 082°27'0 0.1
2014-Nov-09 05:33N 27°57' W 082°27'6 5.6
2014-Nov-09 04:33N 27°51' W 082°27'1413.7
2014-Nov-09 03:33N 27°40' W 082°36'1514.8
2014-Nov-09 02:34N 27°36' W 082°52'1110.5
2014-Nov-09 01:34N 27°31' W 083°03'  
Track history (hours):
 
Tides and Currents Weather Stations Pressure Air Temp Water Temp Dewpoint Dewpoint Depression Visibility Wind Speed Wind Dir Waves Ship Positions

Carnival Pride

Operator: Carnival Cruise Lines

Last reported at 2014-Nov-18 22:33 UTC. Time now 2014-Nov-22 08:26 UTC.
Position N 20°26' W 087°03'.

Type: Ship. MMSI: 354215000.

Date/timePositionNaut miles runAvg speedWind from/ knotsBaromVisibWave heightAir tempDewpointWater temp
2014-Nov-18 22:33N 20°26' W 087°03'5 4.9
2014-Nov-18 21:31N 20°29' W 086°59'0 0.0
2014-Nov-18 20:31N 20°29' W 086°59'0 0.0
2014-Nov-18 19:31N 20°29' W 086°59'0 0.0
2014-Nov-18 18:31N 20°29' W 086°59'0 0.0
2014-Nov-18 17:31N 20°29' W 086°59'0 0.0
2014-Nov-18 16:31N 20°29' W 086°59'0 0.0
2014-Nov-18 15:31N 20°29' W 086°59'0 0.0
2014-Nov-18 14:31N 20°29' W 086°59'0 0.0
2014-Nov-18 13:33N 20°29' W 086°59'4 4.4
2014-Nov-18 12:33N 20°33' W 086°58'10 7.3
2014-Nov-18 11:14N 20°41' W 086°52'42515.9
2014-Nov-17 08:33N 26°60' W 083°21'1917.9
2014-Nov-17 07:31N 27°16' W 083°12'1717.8
2014-Nov-17 06:33N 27°32' W 083°03'1515.4
2014-Nov-17 05:34N 27°37' W 082°46'1515.0
2014-Nov-17 04:33N 27°44' W 082°32'8 8.3
2014-Nov-17 03:33N 27°51' W 082°27'5 5.2
2014-Nov-17 02:32N 27°57' W 082°27'0 0.0
2014-Nov-17 01:29N 27°57' W 082°27'0 0.0
2014-Nov-17 00:32N 27°57' W 082°27'0 0.0
2014-Nov-16 23:32N 27°57' W 082°27'0 0.0
2014-Nov-16 22:32N 27°57' W 082°27'0 0.0
2014-Nov-16 21:29N 27°57' W 082°27'0 0.0
2014-Nov-16 20:32N 27°57' W 082°27'0 0.0
2014-Nov-16 19:29N 27°57' W 082°27'0 0.0
2014-Nov-16 18:32N 27°57' W 082°27'0 0.0
2014-Nov-16 17:32N 27°57' W 082°27'0 0.0
2014-Nov-16 16:33N 27°57' W 082°27'0 0.0
2014-Nov-16 15:33N 27°57' W 082°27'0 0.0
2014-Nov-16 14:33N 27°57' W 082°27'0 0.0
2014-Nov-16 13:33N 27°57' W 082°27'0 0.0
2014-Nov-16 12:33N 27°57' W 082°27'3 3.2
2014-Nov-16 11:33N 27°53' W 082°26'1313.2
2014-Nov-16 10:34N 27°42' W 082°33'1515.1
2014-Nov-16 09:33N 27°36' W 082°49'1312.5
2014-Nov-16 08:33N 27°33' W 083°03'1715.6
2014-Nov-16 07:28N 27°16' W 083°09'  
2014-Nov-11 23:09N 20°24' W 087°04'711.2
2014-Nov-11 22:33N 20°29' W 086°59'0 0.4
2014-Nov-11 21:28N 20°29' W 086°59'0 0.0
2014-Nov-11 20:28N 20°29' W 086°59'0 0.0
2014-Nov-11 19:28N 20°29' W 086°59'0 0.0
2014-Nov-11 18:28N 20°29' W 086°59'0 0.0
2014-Nov-11 17:28N 20°29' W 086°59'0 0.0
2014-Nov-11 16:28N 20°29' W 086°59'0 0.0
2014-Nov-11 15:28N 20°29' W 086°59'0 0.0
2014-Nov-11 14:28N 20°29' W 086°59'0 0.0
2014-Nov-11 13:33N 20°29' W 086°59'5 5.3
2014-Nov-11 12:33N 20°34' W 086°57'44314.6
2014-Nov-10 06:17N 27°08' W 083°16'1818.7
2014-Nov-10 05:20N 27°24' W 083°07'1417.8
2014-Nov-10 04:33N 27°36' W 082°59'1615.7
2014-Nov-10 03:32N 27°37' W 082°41'1414.0
2014-Nov-10 02:33N 27°47' W 082°31'9 9.2
2014-Nov-10 01:33N 27°56' W 082°27'1 0.7
2014-Nov-10 00:33N 27°57' W 082°27'0 0.0
2014-Nov-09 23:33N 27°57' W 082°27'0 0.0
2014-Nov-09 22:33N 27°57' W 082°27'0 0.0
2014-Nov-09 21:33N 27°57' W 082°27'0 0.0
2014-Nov-09 20:33N 27°57' W 082°27'0 0.0
2014-Nov-09 19:33N 27°57' W 082°27'0 0.0
2014-Nov-09 18:33N 27°57' W 082°27'0 0.0
2014-Nov-09 17:33N 27°57' W 082°27'0 0.0
2014-Nov-09 16:33N 27°57' W 082°27'0 0.0
2014-Nov-09 15:33N 27°57' W 082°27'0 0.0
2014-Nov-09 14:20N 27°57' W 082°27'0 0.0
2014-Nov-09 13:31N 27°57' W 082°27'0 0.0
2014-Nov-09 12:31N 27°57' W 082°27'0 0.0
2014-Nov-09 11:31N 27°57' W 082°27'0 0.0
2014-Nov-09 10:33N 27°57' W 082°27'0 0.0
2014-Nov-09 09:33N 27°57' W 082°27'0 0.0
2014-Nov-09 08:32N 27°57' W 082°27'0 0.0
2014-Nov-09 07:33N 27°57' W 082°27'0 0.0
2014-Nov-09 06:31N 27°57' W 082°27'0 0.1
2014-Nov-09 05:33N 27°57' W 082°27'6 5.6
2014-Nov-09 04:33N 27°51' W 082°27'1413.7
2014-Nov-09 03:33N 27°40' W 082°36'1514.8
2014-Nov-09 02:34N 27°36' W 082°52'1110.5
2014-Nov-09 01:34N 27°31' W 083°03'  

Dump ship's entire track history